K9BM Weather Reports


time (UTC)temp
F
wind
direction
speed
knots
gust
knots
rain 1hr
in
rain 24hr
in
rain mn
in
humidity
%
barometer
mb
20260507235504 57 24 8.7 11.3 0.00 0.06 0.06 56 1008.4
20260507235004 58 26 8.7 11.3 0.00 0.06 0.06 54 1008.0
20260507234504 58 30 7.8 11.3 0.00 0.06 0.06 52 1007.8
20260507234005 59 42 5.2 10.4 0.00 0.06 0.06 50 1007.7
20260507233505 60 35 7.0 10.4 0.00 0.06 0.06 48 1007.6
20260507233005 60 34 6.1 8.7 0.00 0.06 0.06 46 1007.4
20260507231505 61 116 0.0 0.0 0.00 0.06 0.06 46 1007.4
20260507231005 60 134 0.0 0.0 0.00 0.06 0.06 45 1007.4
20260507230005 60 135 0.9 2.6 0.00 0.06 0.06 49 1007.3
20260507225505 59 131 1.7 2.6 0.00 0.06 0.06 52 1007.3
20260507225005 58 128 1.7 2.6 0.00 0.06 0.06 54 1007.3
20260507224505 58 103 1.7 2.6 0.00 0.06 0.06 53 1007.4
20260507224005 57 60 0.9 2.6 0.00 0.06 0.06 55 1007.5
20260507223505 57 28 0.0 2.6 0.00 0.06 0.06 56 1007.4
20260507223005 56 29 0.9 2.6 0.00 0.06 0.06 56 1007.4
20260507222505 56 28 1.7 4.3 0.00 0.06 0.06 58 1007.4
20260507222005 55 26 2.6 7.8 0.00 0.06 0.06 59 1007.5
20260507221505 55 29 4.3 7.8 0.00 0.06 0.06 59 1007.5
20260507221005 55 17 4.3 8.7 0.00 0.06 0.06 61 1007.6
20260507220005 55 27 4.3 12.2 0.00 0.06 0.06 65 1007.6
20260507215505 55 21 6.1 18.2 0.00 0.06 0.06 63 1007.6
20260507214505 56 346 15.6 20.0 0.00 0.06 0.06 56 1007.8
20260507214005 57 358 6.1 15.6 0.00 0.06 0.06 57 1007.7
20260507213005 57 11 10.4 20.0 0.00 0.06 0.06 56 1007.9
20260507212505 59 12 12.2 20.0 0.00 0.06 0.06 51 1007.6
20260507212005 62 22 10.4 20.0 0.00 0.06 0.06 45 1007.6
20260507211506 63 25 6.1 11.3 0.00 0.06 0.06 43 1007.5
20260507211005 63 33 6.1 11.3 0.00 0.06 0.06 43 1007.6
20260507210006 62 27 5.2 11.3 0.00 0.06 0.06 43 1007.5
20260507205505 62 34 6.1 11.3 0.00 0.06 0.06 44 1007.5
20260507204505 63 35 0.9 10.4 0.00 0.06 0.06 44 1007.4
20260507204005 62 24 4.3 11.3 0.00 0.06 0.06 45 1007.4
20260507203505 62 346 3.5 11.3 0.00 0.06 0.06 45 1007.4
20260507203005 62 17 3.5 10.4 0.00 0.06 0.06 43 1007.4
20260507202505 62 10 5.2 8.7 0.00 0.06 0.06 46 1007.4
20260507201005 61 116 0.9 5.2 0.00 0.06 0.06 48 1007.6
20260507200005 59 73 0.0 0.0 0.00 0.06 0.06 51 1007.7
20260507195505 59 73 0.0 2.6 0.00 0.06 0.06 51 1007.6
20260507195005 59 73 0.9 4.3 0.00 0.06 0.06 52 1007.7
20260507194504 58 72 1.7 4.3 0.00 0.06 0.06 55 1007.8
20260507194005 58 53 1.7 4.3 0.00 0.06 0.06 54 1007.8
20260507193505 58 52 1.7 4.3 0.00 0.06 0.06 56 1007.9
20260507193005 58 21 0.9 5.2 0.00 0.06 0.06 58 1008.0
20260507192005 58 75 1.7 6.1 0.00 0.06 0.06 57 1008.0
20260507191505 58 99 0.9 7.8 0.00 0.06 0.06 59 1008.1
20260507191005 58 101 4.3 7.8 0.00 0.06 0.06 60 1008.1
20260507185505 57 82 3.5 7.0 0.00 0.06 0.06 61 1008.2
20260507185006 57 62 4.3 7.0 0.00 0.06 0.06 59 1008.2
20260507184504 57 88 2.6 7.0 0.00 0.06 0.06 60 1008.2
20260507184005 56 63 2.6 7.0 0.00 0.06 0.06 60 1008.3
20260507183505 56 85 3.5 7.8 0.00 0.06 0.06 60 1008.3
20260507183004 56 36 2.6 7.8 0.00 0.06 0.06 61 1008.3
20260507182005 56 43 2.6 7.8 0.00 0.06 0.06 61 1008.2
20260507181505 56 62 4.3 10.4 0.00 0.06 0.06 58 1008.2
20260507181005 56 31 4.3 10.4 0.00 0.06 0.06 60 1008.1
20260507175505 57 36 7.8 13.0 0.00 0.06 0.06 61 1008.1
20260507175005 57 35 6.1 13.0 0.00 0.06 0.06 62 1008.0
20260507174005 56 52 5.2 10.4 0.00 0.06 0.06 64 1007.9
20260507173505 56 57 4.3 10.4 0.00 0.06 0.06 63 1008.0
20260507173005 57 62 6.1 10.4 0.00 0.06 0.06 63 1007.9
20260507172505 57 74 3.5 7.0 0.00 0.06 0.06 62 1007.9
20260507172005 57 35 0.9 10.4 0.00 0.06 0.06 61 1007.9
20260507171504 57 342 3.5 10.4 0.00 0.06 0.06 61 1007.9
20260507171005 57 306 5.2 10.4 0.00 0.06 0.06 59 1007.8
20260507170005 56 282 7.8 11.3 0.00 0.06 0.06 62 1007.8
20260507165505 56 262 7.8 10.4 0.00 0.06 0.06 63 1007.8
20260507165005 56 265 7.8 10.4 0.00 0.06 0.06 65 1007.9
20260507164504 55 267 7.8 10.4 0.00 0.06 0.06 66 1007.9
20260507163505 55 267 8.7 13.0 0.00 0.06 0.06 67 1008.1
20260507163005 55 267 9.6 13.0 0.00 0.06 0.06 67 1008.0
20260507162005 54 248 7.0 10.4 0.00 0.06 0.06 67 1008.0
20260507161505 54 261 7.8 10.4 0.00 0.06 0.06 66 1007.9
20260507161005 54 252 6.1 10.4 0.00 0.06 0.06 68 1007.9
20260507160005 54 272 7.8 10.4 0.00 0.06 0.06 66 1007.9
20260507155505 54 270 7.8 10.4 0.00 0.06 0.06 65 1007.9
20260507155005 54 269 7.8 10.4 0.00 0.06 0.06 66 1007.9
20260507154505 54 284 6.1 10.4 0.00 0.06 0.06 66 1007.9
20260507154006 54 270 7.8 11.3 0.00 0.06 0.06 65 1007.9
20260507153505 54 247 8.7 13.9 0.00 0.06 0.06 65 1007.9
20260507153005 54 258 8.7 13.9 0.00 0.06 0.06 66 1007.8
20260507152505 53 262 8.7 17.4 0.00 0.06 0.06 67 1007.8
20260507152005 53 268 8.7 17.4 0.00 0.06 0.06 67 1007.8
20260507151505 53 256 11.3 17.4 0.00 0.06 0.06 66 1007.9
20260507151005 53 278 12.2 17.4 0.00 0.06 0.06 66 1007.9
20260507150006 53 262 11.3 17.4 0.00 0.06 0.06 66 1007.7
20260507145505 53 266 12.2 17.4 0.00 0.06 0.06 68 1007.6
20260507145005 53 263 13.0 17.4 0.00 0.06 0.06 67 1007.7
20260507144505 53 262 13.0 17.4 0.00 0.06 0.06 67 1007.6
20260507144005 53 258 12.2 17.4 0.00 0.06 0.06 67 1007.6
20260507143504 52 252 12.2 18.2 0.00 0.06 0.06 69 1007.7
20260507143004 52 247 12.2 18.2 0.00 0.06 0.06 70 1007.7
20260507142505 51 237 11.3 17.4 0.00 0.06 0.06 71 1007.6
20260507141505 51 253 11.3 20.0 0.00 0.06 0.06 72 1007.6
20260507135511 51 272 13.9 19.1 0.00 0.06 0.06 72 1007.8
20260507135004 51 256 13.9 22.6 0.00 0.06 0.06 72 1007.8
20260507134505 51 265 15.6 24.3 0.00 0.06 0.06 72 1007.8
20260507134005 50 266 18.2 24.3 0.00 0.06 0.06 73 1007.9
20260507133504 50 255 18.2 22.6 0.00 0.06 0.06 73 1008.0
20260507132505 49 247 16.5 20.9 0.00 0.06 0.06 77 1007.9
20260507132005 49 251 13.0 19.1 0.00 0.06 0.06 80 1007.8
20260507131505 48 256 13.9 17.4 0.00 0.06 0.06 81 1007.7
20260507131005 47 238 10.4 13.9 0.00 0.06 0.06 83 1007.8
20260507130005 48 245 8.7 12.2 0.00 0.06 0.06 80 1008.2
20260507125504 49 239 8.7 15.6 0.00 0.06 0.06 76 1008.3
20260507125005 49 243 11.3 18.2 0.00 0.06 0.06 75 1008.1
20260507124505 49 272 14.8 18.2 0.00 0.06 0.06 74 1008.0
20260507124005 50 268 14.8 17.4 0.00 0.06 0.06 74 1007.9
20260507123505 49 285 13.9 20.9 0.00 0.06 0.06 76 1007.9
20260507122505 49 258 14.8 22.6 0.00 0.06 0.06 80 1008.2
20260507122005 49 282 15.6 22.6 0.00 0.06 0.06 78 1008.5
20260507121504 49 289 17.4 22.6 0.00 0.06 0.06 79 1008.5
20260507121005 49 285 14.8 22.6 0.00 0.06 0.06 78 1008.5
20260507120005 49 250 11.3 17.4 0.00 0.06 0.06 78 1007.8
20260507115505 49 249 10.4 14.8 0.00 0.06 0.06 79 1007.7
20260507115005 48 239 7.8 12.2 0.00 0.06 0.06 80 1007.4
20260507114505 48 241 7.8 13.0 0.00 0.06 0.06 81 1007.5
20260507114005 49 254 10.4 13.0 0.00 0.06 0.06 80 1007.6
20260507113005 49 249 8.7 14.8 0.00 0.06 0.06 79 1007.5
20260507112505 49 266 11.3 14.8 0.00 0.06 0.06 79 1007.7
20260507112005 49 249 11.3 13.9 0.00 0.06 0.06 79 1007.7
20260507111506 49 245 8.7 13.0 0.00 0.06 0.06 79 1007.6
20260507111004 49 262 8.7 13.0 0.00 0.06 0.06 80 1007.5
20260507105504 48 242 7.0 10.4 0.00 0.06 0.06 82 1008.1
20260507105005 48 248 7.0 10.4 0.00 0.06 0.06 84 1008.2
20260507104505 48 262 7.0 10.4 0.00 0.06 0.06 84 1007.9
20260507104005 48 268 4.3 10.4 0.00 0.06 0.06 84 1007.8
20260507103505 48 244 6.1 10.4 0.00 0.06 0.06 83 1007.8
20260507103004 49 243 7.0 10.4 0.00 0.06 0.06 82 1007.8
20260507102505 49 241 5.2 13.9 0.00 0.06 0.06 82 1007.7
20260507102006 49 242 8.7 13.9 0.00 0.06 0.06 81 1007.8
20260507101506 50 269 8.7 13.9 0.00 0.06 0.06 77 1008.0
20260507101004 50 257 11.3 14.8 0.00 0.06 0.06 76 1007.8
20260507100005 50 245 11.3 17.4 0.00 0.06 0.06 74 1007.9
20260507095504 51 254 11.3 17.4 0.00 0.06 0.06 74 1007.9
20260507095005 51 237 9.6 13.9 0.00 0.06 0.06 74 1007.7
20260507094505 51 242 10.4 13.9 0.00 0.06 0.06 73 1007.9
20260507094005 51 254 10.4 13.0 0.00 0.06 0.06 74 1008.0
20260507093505 50 236 8.7 13.0 0.00 0.06 0.06 75 1008.1
20260507093004 50 240 8.7 13.0 0.00 0.06 0.06 76 1008.1
20260507092505 50 245 10.4 13.9 0.00 0.06 0.06 76 1008.1
20260507091505 50 260 9.6 17.4 0.00 0.06 0.06 77 1008.3
20260507091004 50 249 11.3 17.4 0.00 0.06 0.06 78 1008.3
20260507090005 49 247 8.7 13.0 0.00 0.06 0.06 81 1008.5
20260507085505 49 267 9.6 13.0 0.00 0.06 0.06 82 1008.4
20260507085005 49 238 11.3 13.9 0.00 0.06 0.06 82 1008.0
20260507084504 49 245 8.7 13.9 0.00 0.06 0.06 83 1008.4
20260507084005 49 260 10.4 14.8 0.00 0.06 0.06 83 1008.6
20260507083505 49 243 10.4 14.8 0.00 0.06 0.06 83 1008.7
20260507083005 49 251 11.3 14.8 0.00 0.06 0.06 83 1009.0
20260507082505 49 241 6.1 10.4 0.00 0.06 0.06 84 1009.2
20260507082005 48 239 7.8 10.4 0.01 0.06 0.06 85 1009.1
20260507081505 48 245 7.8 10.4 0.01 0.06 0.06 85 1009.2
20260507081004 48 240 7.8 12.2 0.01 0.06 0.06 85 1009.3
20260507080004 49 226 5.2 8.7 0.02 0.06 0.06 84 1009.4
20260507075504 49 243 5.2 7.8 0.02 0.06 0.06 84 1009.6
20260507075004 49 200 4.3 7.8 0.03 0.06 0.06 84 1009.7
20260507074504 49 213 1.7 6.1 0.04 0.06 0.06 84 1009.7
20260507074004 49 205 2.6 6.1 0.06 0.06 0.06 84 1009.8
20260507073005 49 245 4.3 8.7 0.06 0.06 0.06 83 1010.0
20260507072505 49 272 4.3 10.4 0.06 0.06 0.06 82 1010.1
20260507072006 49 260 5.2 10.4 0.05 0.05 0.05 82 1010.1
20260507071504 49 282 3.5 6.1 0.05 0.05 0.05 82 1010.4
20260507071004 49 277 2.6 5.2 0.05 0.05 0.05 82 1010.3
20260507070009 50 260 1.7 6.1 0.04 0.04 0.04 79 1010.1
20260507065505 50 278 2.6 6.1 0.04 0.04 0.04 77 1010.1
20260507065005 51 333 2.6 7.0 0.03 0.03 0.03 76 1010.2
20260507064004 51 330 5.2 7.8 0.00 0.00 0.00 70 1009.8
20260507063505 52 340 5.2 8.7 0.00 0.00 0.00 70 1009.6
20260507062505 52 9 3.5 10.4 0.00 0.00 0.00 69 1009.3
20260507062004 53 346 6.1 14.8 0.00 0.00 0.00 67 1009.2
20260507061005 54 340 11.3 17.4 0.00 0.00 0.00 62 1009.6
20260507060004 55 328 12.2 26.1 0.00 0.00 0.00 59 1009.5
20260507055004 57 320 14.8 20.9 0.00 0.00 0.00 47 1009.2
20260507054505 58 309 8.7 13.9 0.00 0.00 0.00 41 1008.9
20260507053005 58 278 7.8 11.3 0.00 0.00 0.00 40 1008.4
20260507052004 58 258 7.8 10.4 0.00 0.00 0.00 39 1008.3
20260507051504 58 255 7.8 10.4 0.00 0.00 0.00 39 1008.3
20260507051004 58 248 7.8 10.4 0.00 0.00 0.00 39 1008.4
20260507050005 58 247 7.8 10.4 0.00 0.00 0.00 39 1008.5
20260507045005 58 245 8.7 10.4 0.00 0.00 0.00 39 1008.7
20260507044504 58 245 7.8 10.4 0.00 0.00 0.00 39 1008.8
20260507044004 59 253 7.8 10.4 0.00 0.00 0.00 38 1008.9
20260507043504 59 277 7.8 10.4 0.00 0.00 0.00 38 1009.0
20260507043004 60 271 7.8 10.4 0.00 0.00 0.00 37 1009.1
20260507042504 60 284 7.0 12.2 0.00 0.00 0.00 36 1009.1
20260507042005 60 284 8.7 12.2 0.00 0.00 0.00 35 1009.0
20260507041504 60 299 8.7 12.2 0.00 0.00 0.00 35 1009.1
20260507041004 60 288 7.8 11.3 0.00 0.00 0.00 35 1009.1
20260507040005 61 278 7.8 12.2 0.00 0.00 0.00 34 1009.2
20260507035504 61 297 8.7 13.9 0.00 0.00 0.00 34 1009.3
20260507035005 61 302 7.8 13.9 0.00 0.00 0.00 33 1009.3
20260507034505 61 297 8.7 15.6 0.00 0.00 0.00 33 1009.2
20260507034005 61 287 11.3 15.6 0.00 0.00 0.00 34 1009.2
20260507033504 61 295 10.4 22.6 0.00 0.00 0.00 34 1009.4
20260507033004 61 279 12.2 22.6 0.00 0.00 0.00 35 1009.4
20260507032004 61 297 9.6 21.7 0.00 0.00 0.00 35 1009.2
20260507031504 61 305 13.9 21.7 0.00 0.00 0.00 35 1009.5
20260507031004 60 294 10.4 13.0 0.00 0.00 0.00 35 1009.3
20260507030004 60 275 7.8 10.4 0.00 0.00 0.00 35 1009.0
20260507025504 60 262 7.8 11.3 0.00 0.00 0.00 35 1009.0
20260507025004 61 268 8.7 12.2 0.00 0.00 0.00 34 1009.0
20260507024504 61 272 8.7 13.0 0.00 0.00 0.00 33 1009.0
20260507023504 61 259 8.7 12.2 0.00 0.00 0.00 33 1009.0
20260507023004 62 282 7.8 12.2 0.00 0.00 0.00 33 1009.0
20260507022504 62 284 7.8 12.2 0.00 0.00 0.00 32 1009.0
20260507021504 62 285 7.8 13.9 0.00 0.00 0.00 32 1009.0
20260507021004 62 281 10.4 13.9 0.00 0.00 0.00 31 1009.0
20260507020004 63 281 8.7 14.8 0.00 0.00 0.00 31 1009.1
20260507015005 64 284 8.7 15.6 0.00 0.00 0.00 30 1009.2
20260507014005 64 283 11.3 18.2 0.00 0.00 0.00 30 1009.3
20260507013504 64 290 11.3 21.7 0.00 0.00 0.00 29 1009.3
20260507013004 65 297 14.8 21.7 0.00 0.00 0.00 28 1009.4
20260507012504 65 295 13.0 17.4 0.00 0.00 0.00 28 1009.4
20260507012004 65 289 11.3 18.2 0.00 0.00 0.00 29 1009.5
20260507011504 65 302 12.2 22.6 0.00 0.00 0.00 28 1009.6
20260507011004 65 288 15.6 22.6 0.00 0.00 0.00 28 1009.7
20260507010004 65 292 11.3 20.9 0.00 0.00 0.00 28 1009.7
20260507005504 65 300 14.8 20.9 0.00 0.00 0.00 28 1009.7
20260507005004 65 287 10.4 20.9 0.00 0.00 0.00 29 1009.7
20260507004504 65 298 13.9 21.7 0.00 0.00 0.00 28 1009.9
20260507004004 65 283 13.9 22.6 0.00 0.00 0.00 28 1009.8
20260507003504 65 295 12.2 22.6 0.00 0.00 0.00 29 1009.9
20260507003004 64 298 11.3 21.7 0.00 0.00 0.00 29 1010.0
20260507002503 64 298 14.8 25.2 0.00 0.00 0.00 29 1010.0
20260507001504 64 292 11.3 21.7 0.00 0.00 0.00 28 1010.2
20260507001004 65 312 11.3 24.3 0.00 0.00 0.00 28 1010.2
20260507000004 65 304 11.3 19.1 0.00 0.00 0.00 28 1010.4